TimeEDT,TemperatureF,Dew PointF,Humidity,Sea Level PressureIn,VisibilityMPH,Wind Direction,Wind SpeedMPH,Gust SpeedMPH,PrecipitationIn,Events,Conditions,WindDirDegrees,DateUTC
12:51 AM,71.1,60.1,68,30.14,10.0,East,8.1,-,N/A,,Scattered Clouds,100,2013-07-13 04:51:00
1:51 AM,70.0,59.0,68,30.14,10.0,East,8.1,-,N/A,,Partly Cloudy,100,2013-07-13 05:51:00
2:51 AM,69.1,59.0,70,30.13,10.0,East,8.1,-,N/A,,Scattered Clouds,100,2013-07-13 06:51:00
3:51 AM,66.9,57.9,73,30.14,10.0,East,5.8,-,N/A,,Scattered Clouds,90,2013-07-13 07:51:00
4:51 AM,66.0,57.9,75,30.15,10.0,East,4.6,-,N/A,,Scattered Clouds,90,2013-07-13 08:51:00
5:51 AM,66.0,57.9,75,30.16,10.0,Calm,Calm,-,N/A,,Clear,0,2013-07-13 09:51:00
6:51 AM,64.9,59.0,81,30.18,10.0,North,4.6,-,N/A,,Partly Cloudy,10,2013-07-13 10:51:00
7:51 AM,69.1,60.1,73,30.19,10.0,NE,5.8,-,N/A,,Partly Cloudy,40,2013-07-13 11:51:00
8:51 AM,72.0,60.1,66,30.20,10.0,East,6.9,-,N/A,,Partly Cloudy,100,2013-07-13 12:51:00
9:51 AM,73.9,61.0,64,30.19,10.0,Variable,4.6,-,N/A,,Clear,0,2013-07-13 13:51:00
10:51 AM,77.0,63.0,62,30.19,10.0,East,6.9,-,N/A,,Clear,80,2013-07-13 14:51:00
11:51 AM,80.1,63.0,56,30.19,10.0,ESE,8.1,-,N/A,,Scattered Clouds,110,2013-07-13 15:51:00
12:51 PM,81.0,64.0,56,30.19,10.0,Variable,6.9,-,N/A,,Scattered Clouds,0,2013-07-13 16:51:00
1:51 PM,80.1,66.0,62,30.19,10.0,NNE,12.7,-,N/A,,Mostly Cloudy,20,2013-07-13 17:51:00
2:51 PM,82.0,66.9,60,30.18,10.0,North,12.7,-,N/A,,Scattered Clouds,10,2013-07-13 18:51:00
3:51 PM,81.0,66.0,60,30.19,10.0,North,13.8,-,N/A,,Partly Cloudy,10,2013-07-13 19:51:00
4:51 PM,79.0,66.0,64,30.19,10.0,NNE,15.0,-,N/A,,Scattered Clouds,20,2013-07-13 20:51:00
5:51 PM,80.1,64.9,60,30.18,10.0,NNE,15.0,-,N/A,,Partly Cloudy,30,2013-07-13 21:51:00
6:51 PM,81.0,66.0,60,30.18,10.0,NNE,11.5,-,N/A,,Partly Cloudy,30,2013-07-13 22:51:00
7:51 PM,78.1,66.0,66,30.19,10.0,NNE,11.5,-,N/A,,Partly Cloudy,30,2013-07-13 23:51:00
8:51 PM,75.9,66.0,71,30.19,10.0,NNE,8.1,-,N/A,,Partly Cloudy,20,2013-07-14 00:51:00
9:51 PM,78.1,66.0,66,30.21,10.0,ESE,8.1,-,N/A,,Clear,110,2013-07-14 01:51:00
10:51 PM,75.9,66.0,71,30.22,10.0,ESE,6.9,-,N/A,,Clear,120,2013-07-14 02:51:00
11:51 PM,75.9,66.0,71,30.23,10.0,East,6.9,-,N/A,,Clear,100,2013-07-14 03:51:00